KUIPER-00527

导读

KUIPER-00527(NORAD编号69269)是亚马逊柯伊伯(Kuiper)低轨互联网星座的成员卫星,属美国亚马逊公司建设的全球宽带通信星座体系。该卫星大概率于2025年发射,初始被送入450公里高度的近地轨道,经自身霍尔推进器升轨至630公里工作轨道,轨道倾角51.9度,重点覆盖全球人口密集区域。其搭载Ka波段相控阵天线与激光星间链路,核心任务是提供低延迟、高带宽互联网接入,重点服务网络覆盖不足的偏远、乡村及海上区域,是亚马逊构建全球卫星互联网、与星链等项目竞争的重要组成节点。

Basic Information
目录编号:
69269
目录名称:
KUIPER-00527
国际标识:
2026-118C
轨道中心:
EARTH
卫星名称:
KUIPER-00527
卫星全名:
KUIPER-00527
卫星状态:
在轨 (已飞行60 天)
发射日期:
2026-05-29 UTC
国别 :
美国 (US)
星等 :
--
Orbit Information
数据来源 国际轨道数据
星历时间: 2026-07-27T22:00:02+0800
10小时前
查看轨道信息
半长轴: 6939.673km
偏心率: 0.0007809
轨道倾角: 51.887°
近地点辐角 358.655°
升交点赤经 220.787°
平近点角 60.108°
近地点: 556.116km
远地点: 566.956km
周期: 95.889分钟
每日圈数: 15.017383
Detailed Information
使用方式:
暂无
2D Orbit Map
3D Orbit Map
Orbit Altitude Analysis Chart
Orbit Inclination Analysis Chart
Orbit Comprehensive Analysis Chart
View Comprehensive Chart